{"data":{"norad_id":66806,"epoch":"2026-05-25T01:13:59.201760Z","epoch_age_seconds":71390,"freshness":"FRESH","line1":"1 66806U 25278R   26145.05137965  .00018879  00000+0  69368-3 0  9991","line2":"2 66806  43.0052  43.4646 0001888 279.6808  80.3831 15.27586072 26884","mean_motion":15.27586072,"eccentricity":0.0001888,"inclination_deg":43.0052,"raan_deg":43.4646,"arg_perigee_deg":279.6808,"mean_anomaly_deg":80.3831,"bstar":0.00069368,"rev_number":2688,"period_min":94.266374012868,"perigee_km":481.73552584526,"apogee_km":484.32630284972,"semimajor_km":6861.1679143475,"source":"CELESTRAK","updated_at":"2026-05-25T13:38:21.329819Z"}}